Regional Weather Roundup
Issued by NWS

Home | Current Version | Previous Version | Text Only | Print | Product List | Glossary On
Versions: 1 2 3 4 5 6 7 8 9 10 11 12 13 14 15 16 17 18 19 20 21 22 23 24 25 26 27 28 29 30 31 32 33 34 35 36 37 38 39 40 41 42 43 44 45 46 47 48
000
ASUS44 KBMX 291710
RWRAL

ALABAMA REGIONAL WEATHER ROUNDUP
NATIONAL WEATHER SERVICE BIRMINGHAM AL
1200 PM CDT SAT AUG 29 2015

NOTE: "FAIR" INDICATES FEW OR NO CLOUDS BELOW 12,000 FEET
WITH NO SIGNIFICANT WEATHER AND/OR OBSTRUCTIONS TO VISIBILITY.

THE REMARK "TC" DENOTES TEMPERATURE IN DEGREES CELSIUS.

ALZ001>011-014-016>018-020-291800-
NORTH ALABAMA

CITY           SKY/WX    TMP DP  RH WIND       PRES   REMARKS
MUSCLE SHOALS  CLOUDY    83  70  64 SW7       30.13F
HUNTSVILLE     PTSUNNY   86  71  60 S15       30.13F HX  91
DECATUR        CLOUDY    77  71  82 E6        30.14F
HALEYVILLE     PTSUNNY   77  72  84 S7        30.18F
GADSDEN        PTSUNNY   82  66  57 S6        30.15F
$$

ALZ012-013-022-023-030>036-040>044-291800-
WEST CENTRAL ALABAMA

CITY           SKY/WX    TMP DP  RH WIND       PRES   REMARKS
TUSCALOOSA     PTSUNNY   85  72  65 SE9       30.12F HX  91
$$

ALZ015-024>027-033>036-040>044-291800-
CENTRAL ALABAMA

CITY           SKY/WX    TMP DP  RH WIND       PRES   REMARKS
BIRMINGHAM     MOSUNNY   82  70  66 S6        30.16F
MONTGOMERY     LGT RAIN  83  71  67 SE5       30.14S
SHELBY CO ARPT PTSUNNY   79  72  79 S6        30.15F
MAXWELL AFB    CLOUDY    82  72  69 SE3       30.13F THUNDER
GREENVILLE     PTSUNNY   80  70  71 CALM      30.13F
$$

ALZ019-021-028-029-037-038-045>048-291800-
EAST CENTRAL ALABAMA

CITY           SKY/WX    TMP DP  RH WIND       PRES   REMARKS
ANNISTON       CLOUDY    82  70  66 S5        30.16F
ALEXANDER CITY LGT RAIN  79  74  84 E5        30.18S
AUBURN         CLOUDY    81  71  71 SE7       30.19S
$$

ALZ051>064-291800-
SOUTHWEST ALABAMA

CITY           SKY/WX    TMP DP  RH WIND       PRES   REMARKS
MOBILE         PTSUNNY   86  71  60 E7        30.10F HX  91
BROOKLEY FIELD MOSUNNY   86  74  67 E8        30.11S HX  94
EVERGREEN      CLOUDY    77  71  82 CALM      30.13F
$$

ALZ049-050-065>069-291800-
SOUTHEAST ALABAMA

CITY           SKY/WX    TMP DP  RH WIND       PRES   REMARKS
DOTHAN         CLOUDY    81  72  74 E8        30.17F
OZARK          PTSUNNY   82  73  72 E3        30.13F
TROY           CLOUDY    82  71  69 SE7       30.15S
EUFAULA        PTSUNNY   85  73  67 E7        30.14F HX  91
$$


USA.gov is the U.S. government's official web portal to all federal, state and local government web resources and services.